Regional Weather Roundup
Issued by NWS

Home | Current Version | Previous Version | Graphics & Text | Print | Product List | Glossary On
Versions: 1 2 3 4 5 6 7 8 9 10 11 12 13 14 15 16 17 18 19 20 21 22 23 24 25 26 27 28 29 30 31 32 33 34 35 36 37 38 39 40 41 42 43 44 45 46 47 48 49 50
000
ASUS43 KMKX 190100
RWRWI

WISCONSIN REGIONAL WEATHER ROUNDUP
NATIONAL WEATHER SERVICE MILWAUKEE/SULLIVAN WI
800 PM CDT FRI APR 18 2014

NOTE: "FAIR" INDICATES FEW OR NO CLOUDS BELOW 12,000 FEET WITH NO
SIGNIFICANT WEATHER AND/OR OBSTRUCTIONS TO VISIBILITY.

WIZ001-002-006>008-014>016-023>028-190200-
NORTHWEST WISCONSIN

CITY           SKY/WX    TMP DP  RH WIND       PRES   REMARKS
SUPERIOR ARPT  PTCLDY    32  27  82 NE10G18   30.32F WCI  24
ASHLAND        CLEAR     28  24  85 N7        30.37F WCI  21
HAYWARD        PTCLDY    42  17  36 E5        30.29F
SIREN          CLOUDY    44  19  37 E5        30.27F
RICE LAKE      MOCLDY    44  21  40 E7        30.29F
LADYSMITH      CLEAR     44  23  43 E7        30.32F
EAU CLAIRE     NOT AVBL
MENOMONIE      MOCLDY    49  26  41 E10       30.27F
NEW RICHMOND   CLOUDY    47  26  43 E9        30.25F
OSCEOLA        CLOUDY    45  28  52 E8        30.28S
$$

WIZ003>005-009-010-017-018-190200-
NORTH CENTRAL WISCONSIN

CITY           SKY/WX    TMP DP  RH WIND       PRES   REMARKS
WOODRUFF       CLEAR     42  21  43 CALM      30.34S
RHINELANDER    CLEAR     36  18  48 E3        30.35R
EAGLE RIVER    CLEAR     37  22  54 E6        30.34S WCI  33
LAND O LAKES   CLEAR     37  23  59 CALM      30.36R
PHILLIPS       CLOUDY    40  14  34 E5        30.32F
TOMAHAWK       CLEAR     39  15  38 CALM      30.34S
MEDFORD        CLEAR     42  21  43 E5        30.31F
MERRILL        CLEAR     43  16  33 CALM      30.34S
$$

WIZ029-030-035-036-043>047-190200-
CENTRAL WISCONSIN

CITY           SKY/WX    TMP DP  RH WIND       PRES   REMARKS
WAUSAU         CLEAR     44  18  35 NE5       30.31F
MOSINEE        CLEAR     43  21  42 NE7       30.34S
MARSHFIELD     PTCLDY    44  24  45 E7        30.30F
STEVENS POINT  CLEAR     42  22  45 NE5       30.33S
WAUPACA        CLEAR     50  19  29 NE3       30.34S
WAUTOMA        NOT AVBL
WISC RAPIDS    CLEAR     46  20  35 E5        30.33F
CAMP DOUGLAS   NOT AVBL
$$

WIZ011>013-019>022-031-037>040-048>050-190200-
NORTHEAST WISCONSIN

CITY           SKY/WX    TMP DP  RH WIND       PRES   REMARKS
ANTIGO         CLEAR     40  22  48 CALM      30.35R
STURGEON BAY   CLEAR     36  23  60 SE3       30.41S
GREEN BAY      CLEAR     41  30  65 E10       30.38S
MANITOWOC      NOT AVBL
APPLETON       PTCLDY    43  30  61 SE9       30.35S
CLINTONVILLE   CLEAR     46  28  49 E10       30.35R
OSHKOSH        CLEAR     42  31  64 E10       30.35R
$$

WIZ032>034-041-042-053>061-190200-
SOUTHWEST WISCONSIN

CITY           SKY/WX    TMP DP  RH WIND       PRES   REMARKS
LA CROSSE      MOCLDY    53  26  35 SE8       30.27S
SPARTA         CLEAR     49  24  36 E5        30.30S
VIROQUA        FAIR      49  30  47 E7        30.27F
BOSCOBEL       PTCLDY    53  26  35 E6        30.28F
PRAIRIE DU CHI CLEAR     55  26  32 E6        30.26S
PLATTEVILLE    FAIR      53  33  47 E7        30.28F
$$

WIZ056-057-062-063-064-067-068-190200-
SOUTH CENTRAL WISCONSIN

CITY           SKY/WX    TMP DP  RH WIND       PRES   REMARKS
BARABOO/DELLS  CLEAR     49  25  39 E5        30.30F
LONE ROCK      NOT AVBL
WATERTOWN      CLEAR     42  32  67 E14       30.34R
MADISON        PTCLDY    46  29  51 E9        30.31S
MIDDLETON      FAIR      51  26  38 E7        30.31F
MONROE         CLEAR     50  28  43 NE7       30.29S
JANESVILLE     CLEAR     50  30  46 E13       30.31S
$$

WIZ051-052-058>065-066-070>072-190200-
SOUTHEAST WISCONSIN

CITY           SKY/WX    TMP DP  RH WIND       PRES   REMARKS
MILWAUKEE      PTCLDY    34  27  75 NE7       30.39S WCI  28
WAUKESHA       NOT AVBL
MILWAUKEE/TIMM CLEAR     36  25  64 NE5       30.40R WCI  32
RACINE         CLEAR     34  27  75 NE8       30.39S WCI  27
BURLINGTON     CLEAR     37  30  74 E12       30.36S WCI  29
KENOSHA        CLEAR     35  28  75 NE10      30.36F WCI  27
FOND DU LAC    CLEAR     43  31  62 E13       30.35S
SHEBOYGAN      CLEAR     35  26  69 E8        30.39S WCI  29
WEST BEND      CLEAR     36  27  69 E8        30.38S WCI  29
JUNEAU         CLEAR     46  26  46 NE8       30.35S
$$

LSZ147-162-190200-
LAKE SUPERIOR

STATION/POSITION TIME  TEMP    WIND        PRES    WAVE
                       AIR SEA DIR/SP/G            HT/PER
                 (UTC) (F)     (DEG/KT/KT) (MB)    (FT/S)
DEVILS ISLAND    0000   33     120/ 10/ 11 1030.1F
PORT WING        0000   40      90/  6/  9 1027.8
SAXON HARBOR     0000           CALM  /  7 1028.8F
$$

LMZ867-665-643>646-190200-
LAKE MICHIGAN

STATION/POSITION TIME  TEMP    WIND        PRES    WAVE
                       AIR SEA DIR/SP/G            HT/PER
                 (UTC) (F)     (DEG/KT/KT) (MB)    (FT/S)
NORTHPORT PIER   0000   35     150/  3/  5 1029.5R
SISTER BAY       0009   39     150/  7/  8   N/A
KEWAUNEE LAKESHO 0000   36     120/  2/  2 1029.9R
SHEBOYGAN LAKESH 0000   36      50/  5/  6 1030.0R
PORT WASHINGTON  0000   37      40/  5/  7 1029.8R
MILWAUKEE LAKESH 0000   35      40/  8/ 10   N/A
KENOSHA   LAKESH 0000   36      30/ 13/ 15   N/A
$$

TC  - TEMPERATURE IN CELSIUS
VSB - VISIBILITY IN STATUTE MILES
WCI - WIND CHILL INDEX
HX  - HEAT INDEX




USA.gov is the U.S. government's official web portal to all federal, state and local government web resources and services.